owner,sensor,date,latitude,longitude,vertical_datum,direction_of_sea_water_velocity,sea_water_speed,upward_sea_water_velocity,qcFlag 
TABS,ioos:station:wmo:42049:1,2008-01-01T00:00:00Z,28.3507,-96.0058,2.0,237.0592438,35.40122314,-99999.0,'11111222,11111222,99999999' 
TABS,ioos:station:wmo:42049:1,2008-01-01T00:30:00Z,28.3507,-96.0058,2.0,237.1339011,37.97870588,-99999.0,'11111222,11111222,99999999' 
TABS,ioos:station:wmo:42049:1,2008-01-01T01:00:00Z,28.3507,-96.0058,2.0,237.0067423,36.47146419,-99999.0,'11111222,11111222,99999999' 
TABS,ioos:station:wmo:42049:1,2008-01-01T01:30:00Z,28.3507,-96.0058,2.0,240.4848767,37.36948622,-99999.0,'11111222,11111222,99999999' 
TABS,ioos:station:wmo:42049:1,2008-01-01T02:00:00Z,28.3507,-96.0058,2.0,237.7866015,34.21695632,-99999.0,'11111222,11111222,99999999' 
TABS,ioos:station:wmo:42049:1,2008-01-01T02:30:00Z,28.3507,-96.0058,2.0,236.4357824,36.51877599,-99999.0,'11111222,11111222,99999999' 
TABS,ioos:station:wmo:42049:1,2008-01-01T03:00:00Z,28.3507,-96.0058,2.0,227.8830725,40.48361891,-99999.0,'11111222,11111222,99999999' 
TABS,ioos:station:wmo:42049:1,2008-01-01T03:30:00Z,28.3507,-96.0058,2.0,229.4291591,38.3619877,-99999.0,'11111222,11111222,99999999' 
TABS,ioos:station:wmo:42049:1,2008-01-01T04:00:00Z,28.3507,-96.0058,2.0,230.9919638,38.06649445,-99999.0,'11111222,11111222,99999999' 
TABS,ioos:station:wmo:42049:1,2008-01-01T04:30:00Z,28.3507,-96.0058,2.0,229.2865559,40.01398381,-99999.0,'11111222,11111222,99999999' 
TABS,ioos:station:wmo:42049:1,2008-01-01T05:00:00Z,28.3507,-96.0058,2.0,230.2567564,40.97950829,-99999.0,'11111222,11111222,99999999' 
TABS,ioos:station:wmo:42049:1,2008-01-01T05:30:00Z,28.3507,-96.0058,2.0,234.4652387,40.93311862,-99999.0,'11111222,11111222,99999999' 
TABS,ioos:station:wmo:42049:1,2008-01-01T06:00:00Z,28.3507,-96.0058,2.0,296.0000916,31.27516906,-99999.0,'11111222,11111222,99999999' 
TABS,ioos:station:wmo:42049:1,2008-01-01T06:30:00Z,28.3507,-96.0058,2.0,302.6581154,27.55643119,-99999.0,'11111222,11111222,99999999' 
TABS,ioos:station:wmo:42049:1,2008-01-01T07:00:00Z,28.3507,-96.0058,2.0,333.2464736,24.43588345,-99999.0,'11111222,11111222,99999999' 
TABS,ioos:station:wmo:42049:1,2008-01-01T07:30:00Z,28.3507,-96.0058,2.0,343.3406477,22.14973815,-99999.0,'11111222,11111222,99999999' 
TABS,ioos:station:wmo:42049:1,2008-01-01T08:00:00Z,28.3507,-96.0058,2.0,31.43275192,17.81415448,-99999.0,'11111222,11111222,99999999' 
TABS,ioos:station:wmo:42049:1,2008-01-01T08:30:00Z,28.3507,-96.0058,2.0,29.24827302,28.75605328,-99999.0,'11111222,11111222,99999999' 
TABS,ioos:station:wmo:42049:1,2008-01-01T09:00:00Z,28.3507,-96.0058,2.0,291.8584415,20.65490257,-99999.0,'11111222,11111222,99999999' 
TABS,ioos:station:wmo:42049:1,2008-01-01T09:30:00Z,28.3507,-96.0058,2.0,310.1662441,12.41854259,-99999.0,'11111222,11111222,99999999' 
TABS,ioos:station:wmo:42049:1,2008-01-01T10:00:00Z,28.3507,-96.0058,2.0,273.7980951,23.25105589,-99999.0,'11111222,11111222,99999999' 
TABS,ioos:station:wmo:42049:1,2008-01-01T10:30:00Z,28.3507,-96.0058,2.0,296.7801231,15.51394856,-99999.0,'11111222,11111222,99999999' 
TABS,ioos:station:wmo:42049:1,2008-01-01T11:00:00Z,28.3507,-96.0058,2.0,343.5751228,11.81204893,-99999.0,'11111222,11111222,99999999' 
TABS,ioos:station:wmo:42049:1,2008-01-01T11:30:00Z,28.3507,-96.0058,2.0,293.0644985,13.98811281,-99999.0,'11111222,11111222,99999999' 
TABS,ioos:station:wmo:42049:1,2008-01-01T12:00:00Z,28.3507,-96.0058,2.0,336.6593958,21.15090542,-99999.0,'11111222,11111222,99999999' 
TABS,ioos:station:wmo:42049:1,2008-01-01T12:30:00Z,28.3507,-96.0058,2.0,330.663432,10.45019139,-99999.0,'11111222,11111222,99999999' 
TABS,ioos:station:wmo:42049:1,2008-01-01T13:00:00Z,28.3507,-96.0058,2.0,60.38862925,38.87755265,-99999.0,'11111222,11111222,99999999' 
TABS,ioos:station:wmo:42049:1,2008-01-01T13:30:00Z,28.3507,-96.0058,2.0,46.06320138,44.59075801,-99999.0,'11111222,11111222,99999999' 
TABS,ioos:station:wmo:42049:1,2008-01-01T14:00:00Z,28.3507,-96.0058,2.0,45.17999677,36.03433918,-99999.0,'11111222,11111222,99999999' 
TABS,ioos:station:wmo:42049:1,2008-01-01T14:30:00Z,28.3507,-96.0058,2.0,37.78938868,53.34886784,-99999.0,'11111222,11111222,99999999' 
TABS,ioos:station:wmo:42049:1,2008-01-01T15:00:00Z,28.3507,-96.0058,2.0,350.9721713,23.64289745,-99999.0,'11111222,11111222,99999999' 
TABS,ioos:station:wmo:42049:1,2008-01-01T15:30:00Z,28.3507,-96.0058,2.0,24.06612887,44.41029836,-99999.0,'11111222,11111222,99999999' 
TABS,ioos:station:wmo:42049:1,2008-01-01T16:00:00Z,28.3507,-96.0058,2.0,33.31782693,25.17837366,-99999.0,'11111222,11111222,99999999' 
TABS,ioos:station:wmo:42049:1,2008-01-01T16:30:00Z,28.3507,-96.0058,2.0,36.96243414,31.00004032,-99999.0,'11111222,11111222,99999999' 
TABS,ioos:station:wmo:42049:1,2008-01-01T17:00:00Z,28.3507,-96.0058,2.0,52.01966484,36.22080341,-99999.0,'11111222,11111222,99999999' 
TABS,ioos:station:wmo:42049:1,2008-01-01T17:30:00Z,28.3507,-96.0058,2.0,63.2083338,23.73828343,-99999.0,'11111222,11111222,99999999' 
TABS,ioos:station:wmo:42049:1,2008-01-01T18:00:00Z,28.3507,-96.0058,2.0,48.16930384,27.49901271,-99999.0,'11111222,11111222,99999999' 
TABS,ioos:station:wmo:42049:1,2008-01-01T18:30:00Z,28.3507,-96.0058,2.0,39.1426849,29.10089002,-99999.0,'11111222,11111222,99999999' 
TABS,ioos:station:wmo:42049:1,2008-01-01T19:00:00Z,28.3507,-96.0058,2.0,52.7295596,24.02658736,-99999.0,'11111222,11111222,99999999' 
TABS,ioos:station:wmo:42049:1,2008-01-01T19:30:00Z,28.3507,-96.0058,2.0,40.76831336,26.06430509,-99999.0,'11111222,11111222,99999999' 
TABS,ioos:station:wmo:42049:1,2008-01-01T20:00:00Z,28.3507,-96.0058,2.0,61.53369416,25.07118067,-99999.0,'11111222,11111222,99999999' 
TABS,ioos:station:wmo:42049:1,2008-01-01T20:30:00Z,28.3507,-96.0058,2.0,269.7343234,12.96013889,-99999.0,'11111222,11111222,99999999' 
TABS,ioos:station:wmo:42049:1,2008-01-01T21:00:00Z,28.3507,-96.0058,2.0,103.3557718,17.35949884,-99999.0,'11111222,11111222,99999999' 
TABS,ioos:station:wmo:42049:1,2008-01-01T21:30:00Z,28.3507,-96.0058,2.0,57.00443456,27.23223274,-99999.0,'11111222,11111222,99999999' 
TABS,ioos:station:wmo:42049:1,2008-01-01T22:00:00Z,28.3507,-96.0058,2.0,53.58646777,27.37486804,-99999.0,'11111222,11111222,99999999' 
TABS,ioos:station:wmo:42049:1,2008-01-01T22:30:00Z,28.3507,-96.0058,2.0,294.011735,8.330918317,-99999.0,'11133222,11111222,99999999' 
TABS,ioos:station:wmo:42049:1,2008-01-01T23:00:00Z,28.3507,-96.0058,2.0,308.1640073,14.9698163,-99999.0,'11111222,11111222,99999999' 
TABS,ioos:station:wmo:42049:1,2008-01-01T23:30:00Z,28.3507,-96.0058,2.0,295.8762665,8.180128361,-99999.0,'11133222,11111222,99999999' 
TABS,ioos:station:wmo:42049:1,2008-01-02T00:00:00Z,28.3507,-96.0058,2.0,93.62213896,10.92181761,-99999.0,'11111222,11111222,99999999' 
TABS,ioos:station:wmo:42049:1,2008-01-02T00:30:00Z,28.3507,-96.0058,2.0,56.67742731,21.62543179,-99999.0,'11111222,11111222,99999999' 
TABS,ioos:station:wmo:42049:1,2008-01-02T01:00:00Z,28.3507,-96.0058,2.0,58.32056734,35.96948985,-99999.0,'11111222,11111222,99999999' 
TABS,ioos:station:wmo:42049:1,2008-01-02T01:30:00Z,28.3507,-96.0058,2.0,56.42197134,34.06420409,-99999.0,'11111222,11111222,99999999' 
TABS,ioos:station:wmo:42049:1,2008-01-02T02:00:00Z,28.3507,-96.0058,2.0,61.62400558,27.31155982,-99999.0,'11111222,11111222,99999999' 
TABS,ioos:station:wmo:42049:1,2008-01-02T02:30:00Z,28.3507,-96.0058,2.0,54.98795143,28.00872186,-99999.0,'11111222,11111222,99999999' 
TABS,ioos:station:wmo:42049:1,2008-01-02T03:00:00Z,28.3507,-96.0058,2.0,258.2610353,9.437372516,-99999.0,'11133222,11111222,99999999' 
TABS,ioos:station:wmo:42049:1,2008-01-02T03:30:00Z,28.3507,-96.0058,2.0,68.74103718,31.38577544,-99999.0,'11111222,11111222,99999999' 
TABS,ioos:station:wmo:42049:1,2008-01-02T04:00:00Z,28.3507,-96.0058,2.0,81.04676,24.60985575,-99999.0,'11111222,11111222,99999999' 
TABS,ioos:station:wmo:42049:1,2008-01-02T04:30:00Z,28.3507,-96.0058,2.0,58.6429881,24.73239374,-99999.0,'11111222,11111222,99999999' 
TABS,ioos:station:wmo:42049:1,2008-01-02T05:00:00Z,28.3507,-96.0058,2.0,44.37498779,29.81339632,-99999.0,'11111222,11111222,99999999' 
TABS,ioos:station:wmo:42049:1,2008-01-02T05:30:00Z,28.3507,-96.0058,2.0,279.1843187,16.9168555,-99999.0,'11111222,11111222,99999999' 
TABS,ioos:station:wmo:42049:1,2008-01-02T06:00:00Z,28.3507,-96.0058,2.0,317.4803952,14.8702421,-99999.0,'11111222,11111222,99999999' 
TABS,ioos:station:wmo:42049:1,2008-01-02T06:30:00Z,28.3507,-96.0058,2.0,86.48941819,39.68446799,-99999.0,'11111222,11111222,99999999' 
TABS,ioos:station:wmo:42049:1,2008-01-02T07:00:00Z,28.3507,-96.0058,2.0,58.0198213,38.66872638,-99999.0,'11111222,11111222,99999999' 
TABS,ioos:station:wmo:42049:1,2008-01-02T07:30:00Z,28.3507,-96.0058,2.0,41.62282892,35.16893089,-99999.0,'11111222,11111222,99999999' 
TABS,ioos:station:wmo:42049:1,2008-01-02T08:00:00Z,28.3507,-96.0058,2.0,46.47011787,34.17864831,-99999.0,'11111222,11111222,99999999' 
TABS,ioos:station:wmo:42049:1,2008-01-02T08:30:00Z,28.3507,-96.0058,2.0,52.1649253,34.07283522,-99999.0,'11111222,11111222,99999999' 
TABS,ioos:station:wmo:42049:1,2008-01-02T09:00:00Z,28.3507,-96.0058,2.0,315.5612342,15.16816733,-99999.0,'11111222,11111222,99999999' 
TABS,ioos:station:wmo:42049:1,2008-01-02T09:30:00Z,28.3507,-96.0058,2.0,331.6232155,23.90210242,-99999.0,'11111222,11111222,99999999' 
TABS,ioos:station:wmo:42049:1,2008-01-02T10:00:00Z,28.3507,-96.0058,2.0,309.6602359,17.62689422,-99999.0,'11111222,11111222,99999999' 
TABS,ioos:station:wmo:42049:1,2008-01-02T10:30:00Z,28.3507,-96.0058,2.0,324.3930916,17.24418743,-99999.0,'11111222,11111222,99999999' 
TABS,ioos:station:wmo:42049:1,2008-01-02T11:00:00Z,28.3507,-96.0058,2.0,322.7483031,23.39252017,-99999.0,'11111222,11111222,99999999' 
TABS,ioos:station:wmo:42049:1,2008-01-02T11:30:00Z,28.3507,-96.0058,2.0,330.7094191,24.26195582,-99999.0,'11111222,11111222,99999999' 
TABS,ioos:station:wmo:42049:1,2008-01-02T12:00:00Z,28.3507,-96.0058,2.0,316.3839994,26.35448349,-99999.0,'11111222,11111222,99999999' 
TABS,ioos:station:wmo:42049:1,2008-01-02T12:30:00Z,28.3507,-96.0058,2.0,71.25058415,33.41312916,-99999.0,'11111222,11111222,99999999' 
TABS,ioos:station:wmo:42049:1,2008-01-02T13:00:00Z,28.3507,-96.0058,2.0,54.71203704,27.74857474,-99999.0,'11111222,11111222,99999999' 
TABS,ioos:station:wmo:42049:1,2008-01-02T13:30:00Z,28.3507,-96.0058,2.0,332.912527,15.19695035,-99999.0,'11111222,11111222,99999999' 
TABS,ioos:station:wmo:42049:1,2008-01-02T14:00:00Z,28.3507,-96.0058,2.0,355.8198533,27.57335852,-99999.0,'11111222,11111222,99999999' 
TABS,ioos:station:wmo:42049:1,2008-01-02T14:30:00Z,28.3507,-96.0058,2.0,357.9706493,18.07133642,-99999.0,'11111222,11111222,99999999' 
TABS,ioos:station:wmo:42049:1,2008-01-02T15:00:00Z,28.3507,-96.0058,2.0,314.5888639,15.75474532,-99999.0,'11111222,11111222,99999999' 
TABS,ioos:station:wmo:42049:1,2008-01-02T15:30:00Z,28.3507,-96.0058,2.0,326.1986311,12.81637234,-99999.0,'11111222,11111222,99999999' 
TABS,ioos:station:wmo:42049:1,2008-01-02T16:00:00Z,28.3507,-96.0058,2.0,6.0461223,21.93199033,-99999.0,'11111222,11111222,99999999' 
TABS,ioos:station:wmo:42049:1,2008-01-02T16:30:00Z,28.3507,-96.0058,2.0,287.4609053,43.32630725,-99999.0,'11111222,11111222,99999999' 
TABS,ioos:station:wmo:42049:1,2008-01-02T17:00:00Z,28.3507,-96.0058,2.0,8.897757467,11.50848817,-99999.0,'11111222,11111222,99999999' 
TABS,ioos:station:wmo:42049:1,2008-01-02T17:30:00Z,28.3507,-96.0058,2.0,29.05107499,15.15691591,-99999.0,'11111222,11111222,99999999' 
TABS,ioos:station:wmo:42049:1,2008-01-02T18:00:00Z,28.3507,-96.0058,2.0,343.8986569,19.6508753,-99999.0,'11111222,11111222,99999999' 
TABS,ioos:station:wmo:42049:1,2008-01-02T18:30:00Z,28.3507,-96.0058,2.0,13.24290334,14.88583891,-99999.0,'11111222,11111222,99999999' 
TABS,ioos:station:wmo:42049:1,2008-01-02T19:00:00Z,28.3507,-96.0058,2.0,18.22330329,20.52964686,-99999.0,'11111222,11111222,99999999' 
TABS,ioos:station:wmo:42049:1,2008-01-02T19:30:00Z,28.3507,-96.0058,2.0,35.05886748,11.95997492,-99999.0,'11111222,11111222,99999999' 
TABS,ioos:station:wmo:42049:1,2008-01-02T20:00:00Z,28.3507,-96.0058,2.0,330.3013421,17.01509036,-99999.0,'11111222,11111222,99999999' 
TABS,ioos:station:wmo:42049:1,2008-01-02T20:30:00Z,28.3507,-96.0058,2.0,18.84494928,11.05244317,-99999.0,'11111222,11111222,99999999' 
TABS,ioos:station:wmo:42049:1,2008-01-02T21:00:00Z,28.3507,-96.0058,2.0,356.885552,9.754409259,-99999.0,'11133222,11111222,99999999' 
TABS,ioos:station:wmo:42049:1,2008-01-02T21:30:00Z,28.3507,-96.0058,2.0,354.4017298,13.22307453,-99999.0,'11111222,11111222,99999999' 
TABS,ioos:station:wmo:42049:1,2008-01-02T22:00:00Z,28.3507,-96.0058,2.0,3.293642375,7.832936869,-99999.0,'11133222,11111222,99999999' 
TABS,ioos:station:wmo:42049:1,2008-01-02T22:30:00Z,28.3507,-96.0058,2.0,340.5434931,13.29949247,-99999.0,'11111222,11111222,99999999' 
TABS,ioos:station:wmo:42049:1,2008-01-02T23:00:00Z,28.3507,-96.0058,2.0,314.8287724,33.06446128,-99999.0,'11111222,11111222,99999999' 
TABS,ioos:station:wmo:42049:1,2008-01-02T23:30:00Z,28.3507,-96.0058,2.0,3.897977779,19.12423593,-99999.0,'11111222,11111222,99999999' 
TABS,ioos:station:wmo:42049:1,2008-01-03T00:00:00Z,28.3507,-96.0058,2.0,337.6613611,16.62789223,-99999.0,'11111222,11111222,99999999' 
TABS,ioos:station:wmo:42049:1,2008-01-03T00:30:00Z,28.3507,-96.0058,2.0,309.1625985,13.00040384,-99999.0,'11111222,11111222,99999999' 
TABS,ioos:station:wmo:42049:1,2008-01-03T01:00:00Z,28.3507,-96.0058,2.0,40.35348869,9.776062602,-99999.0,'11133222,11111222,99999999' 
TABS,ioos:station:wmo:42049:1,2008-01-03T01:30:00Z,28.3507,-96.0058,2.0,93.02412838,10.61478215,-99999.0,'11111222,11111222,99999999' 
TABS,ioos:station:wmo:42049:1,2008-01-03T02:00:00Z,28.3507,-96.0058,2.0,317.9786731,13.60897498,-99999.0,'11111222,11111222,99999999' 
TABS,ioos:station:wmo:42049:1,2008-01-03T02:30:00Z,28.3507,-96.0058,2.0,343.9796491,17.79095557,-99999.0,'11111222,11111222,99999999' 
TABS,ioos:station:wmo:42049:1,2008-01-03T03:00:00Z,28.3507,-96.0058,2.0,9.929387711,14.32455933,-99999.0,'11111222,11111222,99999999' 
TABS,ioos:station:wmo:42049:1,2008-01-03T03:30:00Z,28.3507,-96.0058,2.0,284.7256757,36.70557042,-99999.0,'11111222,11111222,99999999' 
TABS,ioos:station:wmo:42049:1,2008-01-03T04:00:00Z,28.3507,-96.0058,2.0,293.3523975,33.83122374,-99999.0,'11111222,11111222,99999999' 
TABS,ioos:station:wmo:42049:1,2008-01-03T04:30:00Z,28.3507,-96.0058,2.0,293.8221874,22.33260621,-99999.0,'11111222,11111222,99999999' 
TABS,ioos:station:wmo:42049:1,2008-01-03T05:00:00Z,28.3507,-96.0058,2.0,289.7605332,22.83458999,-99999.0,'11111222,11111222,99999999' 
TABS,ioos:station:wmo:42049:1,2008-01-03T05:30:00Z,28.3507,-96.0058,2.0,282.7448844,25.06757667,-99999.0,'11111222,11111222,99999999' 
TABS,ioos:station:wmo:42049:1,2008-01-03T06:00:00Z,28.3507,-96.0058,2.0,259.8069258,26.95540391,-99999.0,'11111222,11111222,99999999' 
TABS,ioos:station:wmo:42049:1,2008-01-03T06:30:00Z,28.3507,-96.0058,2.0,306.3103798,33.97762205,-99999.0,'11111222,11111222,99999999' 
TABS,ioos:station:wmo:42049:1,2008-01-03T07:00:00Z,28.3507,-96.0058,2.0,303.7134144,34.5384105,-99999.0,'11111222,11111222,99999999' 
TABS,ioos:station:wmo:42049:1,2008-01-03T07:30:00Z,28.3507,-96.0058,2.0,286.7155696,10.32632558,-99999.0,'11111222,11111222,99999999' 
TABS,ioos:station:wmo:42049:1,2008-01-03T08:00:00Z,28.3507,-96.0058,2.0,179.9997895,4.99,-99999.0,'11133222,11111222,99999999' 
TABS,ioos:station:wmo:42049:1,2008-01-03T08:30:00Z,28.3507,-96.0058,2.0,32.84053794,11.78312777,-99999.0,'11111222,11111222,99999999' 
TABS,ioos:station:wmo:42049:1,2008-01-03T09:00:00Z,28.3507,-96.0058,2.0,330.3932941,13.39951119,-99999.0,'11111222,11111222,99999999' 
TABS,ioos:station:wmo:42049:1,2008-01-03T09:30:00Z,28.3507,-96.0058,2.0,286.3760958,32.73806653,-99999.0,'11111222,11111222,99999999' 
TABS,ioos:station:wmo:42049:1,2008-01-03T10:00:00Z,28.3507,-96.0058,2.0,242.0019289,22.53766625,-99999.0,'11111222,11111222,99999999' 
TABS,ioos:station:wmo:42049:1,2008-01-03T10:30:00Z,28.3507,-96.0058,2.0,264.7449427,15.50516043,-99999.0,'11111222,11111222,99999999' 
TABS,ioos:station:wmo:42049:1,2008-01-03T11:00:00Z,28.3507,-96.0058,2.0,322.9330555,6.968041332,-99999.0,'11133222,11111222,99999999' 
TABS,ioos:station:wmo:42049:1,2008-01-03T11:30:00Z,28.3507,-96.0058,2.0,298.8946037,18.046562,-99999.0,'11111222,11111222,99999999' 
TABS,ioos:station:wmo:42049:1,2008-01-03T12:00:00Z,28.3507,-96.0058,2.0,264.7791338,29.89400107,-99999.0,'11111222,11111222,99999999' 
TABS,ioos:station:wmo:42049:1,2008-01-03T12:30:00Z,28.3507,-96.0058,2.0,267.8771787,32.40222832,-99999.0,'11111222,11111222,99999999' 
TABS,ioos:station:wmo:42049:1,2008-01-03T13:00:00Z,28.3507,-96.0058,2.0,14.89810282,6.6122689,-99999.0,'11133222,11111222,99999999' 
TABS,ioos:station:wmo:42049:1,2008-01-03T13:30:00Z,28.3507,-96.0058,2.0,306.3733065,8.532320903,-99999.0,'11133222,11111222,99999999' 
TABS,ioos:station:wmo:42049:1,2008-01-03T14:00:00Z,28.3507,-96.0058,2.0,329.0941243,13.6478643,-99999.0,'11111222,11111222,99999999' 
TABS,ioos:station:wmo:42049:1,2008-01-03T14:30:00Z,28.3507,-96.0058,2.0,298.6997604,16.45098477,-99999.0,'11111222,11111222,99999999' 
TABS,ioos:station:wmo:42049:1,2008-01-03T15:00:00Z,28.3507,-96.0058,2.0,291.8191998,12.21503991,-99999.0,'11111222,11111222,99999999' 
TABS,ioos:station:wmo:42049:1,2008-01-03T15:30:00Z,28.3507,-96.0058,2.0,310.3822608,17.5649879,-99999.0,'11111222,11111222,99999999' 
TABS,ioos:station:wmo:42049:1,2008-01-03T16:00:00Z,28.3507,-96.0058,2.0,342.5315411,16.6897124,-99999.0,'11111222,11111222,99999999' 
TABS,ioos:station:wmo:42049:1,2008-01-03T16:30:00Z,28.3507,-96.0058,2.0,285.1400099,4.786115335,-99999.0,'11133222,11111222,99999999' 
TABS,ioos:station:wmo:42049:1,2008-01-03T17:00:00Z,28.3507,-96.0058,2.0,213.4156385,7.535688422,-99999.0,'11133222,11111222,99999999' 
TABS,ioos:station:wmo:42049:1,2008-01-03T17:30:00Z,28.3507,-96.0058,2.0,260.8613309,21.21931667,-99999.0,'11111222,11111222,99999999' 
TABS,ioos:station:wmo:42049:1,2008-01-03T18:00:00Z,28.3507,-96.0058,2.0,261.8410152,22.76035588,-99999.0,'11111222,11111222,99999999' 
TABS,ioos:station:wmo:42049:1,2008-01-03T18:30:00Z,28.3507,-96.0058,2.0,266.4178729,39.85785368,-99999.0,'11111222,11111222,99999999' 
TABS,ioos:station:wmo:42049:1,2008-01-03T19:00:00Z,28.3507,-96.0058,2.0,271.4848026,32.04075218,-99999.0,'11111222,11111222,99999999' 
TABS,ioos:station:wmo:42049:1,2008-01-03T19:30:00Z,28.3507,-96.0058,2.0,285.930709,31.33331933,-99999.0,'11111222,11111222,99999999' 
TABS,ioos:station:wmo:42049:1,2008-01-03T20:00:00Z,28.3507,-96.0058,2.0,314.9825496,22.80419479,-99999.0,'11111222,11111222,99999999' 
TABS,ioos:station:wmo:42049:1,2008-01-03T20:30:00Z,28.3507,-96.0058,2.0,39.48398693,4.560745553,-99999.0,'11133222,11111222,99999999' 
TABS,ioos:station:wmo:42049:1,2008-01-03T21:00:00Z,28.3507,-96.0058,2.0,334.9510477,6.424235363,-99999.0,'11133222,11111222,99999999' 
TABS,ioos:station:wmo:42049:1,2008-01-03T21:30:00Z,28.3507,-96.0058,2.0,260.7156362,13.20294664,-99999.0,'11111222,11111222,99999999' 
TABS,ioos:station:wmo:42049:1,2008-01-03T22:00:00Z,28.3507,-96.0058,2.0,12.60878777,4.672686593,-99999.0,'11133222,11111222,99999999' 
TABS,ioos:station:wmo:42049:1,2008-01-03T22:30:00Z,28.3507,-96.0058,2.0,6.194100942,12.97574661,-99999.0,'11111222,11111222,99999999' 
TABS,ioos:station:wmo:42049:1,2008-01-03T23:00:00Z,28.3507,-96.0058,2.0,324.0157432,4.918587196,-99999.0,'11133222,11111222,99999999' 
TABS,ioos:station:wmo:42049:1,2008-01-03T23:30:00Z,28.3507,-96.0058,2.0,350.0907339,6.740563775,-99999.0,'11133222,11111222,99999999' 
TABS,ioos:station:wmo:42049:1,2008-01-04T00:00:00Z,28.3507,-96.0058,2.0,302.6195877,10.09175901,-99999.0,'11111222,11111222,99999999' 
TABS,ioos:station:wmo:42049:1,2008-01-04T00:30:00Z,28.3507,-96.0058,2.0,345.4456248,10.18691317,-99999.0,'11111222,11111222,99999999' 
TABS,ioos:station:wmo:42049:1,2008-01-04T01:00:00Z,28.3507,-96.0058,2.0,114.7056003,16.12606896,-99999.0,'11111222,11111222,99999999' 
TABS,ioos:station:wmo:42049:1,2008-01-04T01:30:00Z,28.3507,-96.0058,2.0,76.04519443,10.24228978,-99999.0,'11111222,11111222,99999999' 
TABS,ioos:station:wmo:42049:1,2008-01-04T02:00:00Z,28.3507,-96.0058,2.0,309.5407114,4.979407595,-99999.0,'11133222,11111222,99999999' 
TABS,ioos:station:wmo:42049:1,2008-01-04T02:30:00Z,28.3507,-96.0058,2.0,97.95893854,4.261044473,-99999.0,'11133222,11111222,99999999' 
TABS,ioos:station:wmo:42049:1,2008-01-04T03:00:00Z,28.3507,-96.0058,2.0,52.66532538,4.930162269,-99999.0,'11133222,11111222,99999999' 
TABS,ioos:station:wmo:42049:1,2008-01-04T03:30:00Z,28.3507,-96.0058,2.0,345.6576869,9.526935499,-99999.0,'11133222,11111222,99999999' 
TABS,ioos:station:wmo:42049:1,2008-01-04T04:00:00Z,28.3507,-96.0058,2.0,5.937612674,10.05393455,-99999.0,'11111222,11111222,99999999' 
TABS,ioos:station:wmo:42049:1,2008-01-04T04:30:00Z,28.3507,-96.0058,2.0,0.492711041,6.980257875,-99999.0,'11133222,11111222,99999999' 
TABS,ioos:station:wmo:42049:1,2008-01-04T05:00:00Z,28.3507,-96.0058,2.0,53.05323006,5.956005373,-99999.0,'11133222,11111222,99999999' 
TABS,ioos:station:wmo:42049:1,2008-01-04T05:30:00Z,28.3507,-96.0058,2.0,59.40140638,8.074317309,-99999.0,'11133222,11111222,99999999' 
TABS,ioos:station:wmo:42049:1,2008-01-04T06:00:00Z,28.3507,-96.0058,2.0,45.83356943,11.18054113,-99999.0,'11111222,11111222,99999999' 
TABS,ioos:station:wmo:42049:1,2008-01-04T06:30:00Z,28.3507,-96.0058,2.0,68.68321559,12.07619973,-99999.0,'11111222,11111222,99999999' 
TABS,ioos:station:wmo:42049:1,2008-01-04T07:00:00Z,28.3507,-96.0058,2.0,10.29630938,11.74919572,-99999.0,'11111222,11111222,99999999' 
TABS,ioos:station:wmo:42049:1,2008-01-04T07:30:00Z,28.3507,-96.0058,2.0,108.0894581,11.01441328,-99999.0,'11111222,11111222,99999999' 
TABS,ioos:station:wmo:42049:1,2008-01-04T08:00:00Z,28.3507,-96.0058,2.0,331.0991742,8.338519053,-99999.0,'11133222,11111222,99999999' 
TABS,ioos:station:wmo:42049:1,2008-01-04T08:30:00Z,28.3507,-96.0058,2.0,72.26236995,6.236473362,-99999.0,'11133222,11111222,99999999' 
TABS,ioos:station:wmo:42049:1,2008-01-04T09:00:00Z,28.3507,-96.0058,2.0,53.69643438,11.13054356,-99999.0,'11111222,11111222,99999999' 
TABS,ioos:station:wmo:42049:1,2008-01-04T09:30:00Z,28.3507,-96.0058,2.0,33.45595829,3.392020047,-99999.0,'11133222,11111222,99999999' 
TABS,ioos:station:wmo:42049:1,2008-01-04T10:00:00Z,28.3507,-96.0058,2.0,124.9533381,7.29608114,-99999.0,'11133222,11111222,99999999' 
TABS,ioos:station:wmo:42049:1,2008-01-04T10:30:00Z,28.3507,-96.0058,2.0,90.48308843,11.86042158,-99999.0,'11111222,11111222,99999999' 
TABS,ioos:station:wmo:42049:1,2008-01-04T11:00:00Z,28.3507,-96.0058,2.0,89.55121822,3.830117492,-99999.0,'11133222,11111222,99999999' 
TABS,ioos:station:wmo:42049:1,2008-01-04T11:30:00Z,28.3507,-96.0058,2.0,109.2440036,4.702775776,-99999.0,'11133222,11111222,99999999' 
TABS,ioos:station:wmo:42049:1,2008-01-04T12:00:00Z,28.3507,-96.0058,2.0,95.0902114,5.973558403,-99999.0,'11133222,11111222,99999999' 
TABS,ioos:station:wmo:42049:1,2008-01-04T12:30:00Z,28.3507,-96.0058,2.0,48.08227885,3.682281901,-99999.0,'11133222,11111222,99999999' 
TABS,ioos:station:wmo:42049:1,2008-01-04T13:00:00Z,28.3507,-96.0058,2.0,8.781107792,18.80035372,-99999.0,'11111222,11111222,99999999' 
TABS,ioos:station:wmo:42049:1,2008-01-04T13:30:00Z,28.3507,-96.0058,2.0,345.3705473,8.195718394,-99999.0,'11133222,11111222,99999999' 
TABS,ioos:station:wmo:42049:1,2008-01-04T14:00:00Z,28.3507,-96.0058,2.0,357.1458768,10.6432044,-99999.0,'11111222,11111222,99999999' 
TABS,ioos:station:wmo:42049:1,2008-01-04T14:30:00Z,28.3507,-96.0058,2.0,26.14545871,12.20925878,-99999.0,'11111222,11111222,99999999' 
TABS,ioos:station:wmo:42049:1,2008-01-04T15:00:00Z,28.3507,-96.0058,2.0,358.5161993,9.653237799,-99999.0,'11133222,11111222,99999999' 
TABS,ioos:station:wmo:42049:1,2008-01-04T15:30:00Z,28.3507,-96.0058,2.0,69.5731317,12.46374342,-99999.0,'11111222,11111222,99999999' 
TABS,ioos:station:wmo:42049:1,2008-01-04T16:00:00Z,28.3507,-96.0058,2.0,270.8076557,26.2626065,-99999.0,'11111222,11111222,99999999' 